Location: *
(44.3925°N, 5.4708°E)
Time: 02:18:29
(UTC+00:00)

CZ-2C R/B - Pass Details

Date: 18 September 2019
Orbit: 704 x 907 km, 98.1° (Epoch: 20 October)

Event Time Altitude Azimuth Distance (km) Brightness Sun altitude
Exits shadow 19:55:03 56° 141° (SE) 957 3.1 -23.3°
Maximum altitude 19:56:09 75° 74° (ENE) 842 3.0 -23.5°
Drops below altitude 10° 20:01:37 10° 350° (N) 2,477 6.1 -24.3°
Sets 20:04:04 0° 349° (N) 3,445 7.0 -24.7°
